Change the Weather History Date:

Saturday, December 24, 2011

  Actual Average Record
Temperature  
Mean Temperature 36 °F 32 °F  
Max Temperature 44 °F 41 °F 66 °F (1955)
Min Temperature 28 °F 24 °F -9 °F (1983)
Degree Days  
Heating Degree Days 29 33  
Month to date heating degree days 573 722  
Since 1 July heating degree days 1431 1792  
Cooling Degree Days 0 0  
Month to date cooling degree days 0 0  
Year to date cooling degree days 1284 895  
Moisture  
Dew Point 26 °F    
Average Humidity 63    
Maximum Humidity 85    
Minimum Humidity 40    
Precipitation  
Precipitation T in 0.08 in 1.44 in (1986)
Month to date precipitation 2.36 2.21  
Year to date precipitation 46.42 38.20  
Sea Level Pressure  
Sea Level Pressure 30.38 in    
Wind  
Wind Speed 5 mph (NNW)    
Max Wind Speed 17 mph    
Max Gust Speed 25 mph    
Visibility 10 miles    
Events Rain    
T = Trace of Precipitation, MM = Missing Value Source: NWS Daily Summary

Daily Weather History Graph

Daily Weather History Graph

Search for Another Location

Airport or City:

Trip Planner

Search our weather history database for the weather conditions in past years. The results will help you decide how hot, cold, wet, or windy it might be!

Date:

Astronomy

Dec. 24, 2011 Rise Set
Actual Time 7:29 AM EST 4:53 PM EST
Civil Twilight 6:59 AM EST 5:23 PM EST
Nautical Twilight 6:25 AM EST 5:57 PM EST
Astronomical Twilight 5:52 AM EST 6:29 PM EST
Moon 7:16 AM EST (12/24) 5:04 PM EST (12/24)
Length of Visible Light 10h 24m
Length of Day
9h 23m
Waning Crescent, 0% of the Moon is Illuminated
Dec 24
Waning Crescent
Dec 24
New
Jan 1
First Quarter
Jan 9
Full
Jan 16
Last Quarter

Hourly Weather History & Observations

Time (EST) Temp. Windchill Dew Point Humidity Pressure Visibility Wind Dir Wind Speed Gust Speed Precip Events Conditions
12:33 AM 39.2 °F 37.0 °F 33.8 °F 81% 30.23 in 10.0 mi North 3.5 mph - 0.00 in Rain Light Rain
12:53 AM 39.0 °F 36.8 °F 34.0 °F 82% 30.24 in 10.0 mi NNE 3.5 mph - 0.00 in   Overcast
1:53 AM 39.0 °F - 34.0 °F 82% 30.25 in 10.0 mi Calm Calm - N/A   Overcast
2:53 AM 39.0 °F - 35.1 °F 86% 30.27 in 10.0 mi Calm Calm - N/A   Overcast
3:53 AM 37.9 °F - 34.0 °F 86% 30.29 in 10.0 mi Calm Calm - N/A   Scattered Clouds
4:53 AM 39.9 °F 32.1 °F 28.9 °F 65% 30.32 in 10.0 mi NW 13.8 mph - N/A   Mostly Cloudy
5:53 AM 39.0 °F 31.8 °F 25.0 °F 57% 30.36 in 10.0 mi West 11.5 mph - N/A   Overcast
6:53 AM 37.9 °F 28.9 °F 21.0 °F 51% 30.39 in 10.0 mi WNW 16.1 mph - N/A   Scattered Clouds
7:53 AM 36.0 °F 30.3 °F 21.0 °F 55% 30.42 in 10.0 mi WNW 6.9 mph - N/A   Clear
8:53 AM 37.9 °F 31.5 °F 21.0 °F 51% 30.45 in 10.0 mi NW 9.2 mph - N/A   Scattered Clouds
9:53 AM 39.9 °F 33.9 °F 21.9 °F 49% 30.48 in 10.0 mi NNW 9.2 mph - N/A   Partly Cloudy
10:53 AM 39.9 °F 33.9 °F 23.0 °F 51% 30.48 in 10.0 mi NNW 9.2 mph - N/A   Mostly Cloudy
11:53 AM 42.1 °F 35.7 °F 21.9 °F 45% 30.45 in 10.0 mi WNW 11.5 mph 19.6 mph N/A   Partly Cloudy
12:53 PM 42.1 °F 38.4 °F 21.9 °F 45% 30.41 in 10.0 mi West 5.8 mph - N/A   Partly Cloudy
1:53 PM 44.1 °F 39.0 °F 21.9 °F 42% 30.40 in 10.0 mi North 9.2 mph - N/A   Mostly Cloudy
2:53 PM 42.8 °F - 21.2 °F 42% 30.37 in 10.0 mi Calm Calm - N/A   Mostly Cloudy
3:53 PM 42.1 °F 38.4 °F 23.0 °F 47% 30.40 in 10.0 mi NE 5.8 mph - N/A   Clear
4:53 PM 39.0 °F - 24.1 °F 55% 30.42 in 10.0 mi Calm Calm - N/A   Mostly Cloudy
5:53 PM 37.9 °F 35.5 °F 26.1 °F 62% 30.41 in 10.0 mi East 3.5 mph - N/A   Overcast
6:53 PM 39.2 °F - 24.8 °F 56% 30.41 in 10.0 mi Calm Calm - N/A   Overcast
7:53 PM 37.0 °F - 23.0 °F 57% 30.42 in 10.0 mi Calm Calm - N/A   Mostly Cloudy
8:53 PM 34.0 °F - 25.0 °F 70% 30.41 in 10.0 mi Calm Calm - N/A   Mostly Cloudy
9:53 PM 32.0 °F - 25.0 °F 75% 30.40 in 10.0 mi Calm Calm - N/A   Clear
10:53 PM 30.9 °F - 24.1 °F 76% 30.39 in 10.0 mi Calm Calm - N/A   Clear
11:53 PM 28.0 °F - 23.0 °F 81% 30.38 in 10.0 mi Calm Calm - N/A   Clear